Location: Kott?ru
(16.6209°N, 80.6208°E)
Time: 00:44:47
(UTC+00:00)

DMSP B5D2-2 - Pass Details

Date: 18 September 2020
Orbit: 790 x 806 km, 98.3° (Epoch: 26 October)

Event Time Altitude Azimuth Distance (km) Brightness Sun altitude
Rises 13:45:19 0° 22° (NNE) 3,312 7.1 -17.2°
Reaches altitude 10° 13:47:45 10° 28° (NNE) 2,380 6.3 -17.8°
Maximum altitude 13:52:47 45° 101° (E) 1,081 4.3 -19.0°
Drops below altitude 10° 13:57:46 10° 173° (S) 2,370 6.4 -20.2°
Sets 14:00:11 0° 179° (S) 3,296 7.2 -20.7°
